Andrews Air Force Base, MD

12:51 AM EDT on October 01, 2016 (GMT -0400)
Andrews Air Force Base-Naf

Weather History for KADW - March, 2014

Change the Weather History Date:

Monday, March 31, 2014

  Actual Average Record
Temperature  
Mean Temperature 52 °F -  
Max Temperature 63 °F 59 °F 84 °F (1998)
Min Temperature 40 °F 38 °F 28 °F (2003)
Degree Days  
Heating Degree Days 14    
Growing Degree Days 2 (Base 50)    
Moisture  
Dew Point 32 °F    
Average Humidity 53    
Maximum Humidity 76    
Minimum Humidity 30    
Precipitation  
Precipitation 0.02 in - - ()
Sea Level Pressure  
Sea Level Pressure 29.98 in    
Wind  
Wind Speed 14 mph (NW)    
Max Wind Speed 23 mph    
Max Gust Speed 29 mph    
Visibility 10 miles    
Events      
Averages and records for this station are not official NWS values.
T = Trace of Precipitation, MM = Missing Value Source: NWS Daily Summary

Daily Weather History Graph

Daily Weather History Graph

Search for Another Location

Airport or City:

Trip Planner

Search our weather history database for the weather conditions in past years. The results will help you decide how hot, cold, wet, or windy it might be!

Date:

Astronomy

Mar. 31, 2014 Rise Set
Actual Time 6:53 AM EDT 7:30 PM EDT
Civil Twilight 6:26 AM EDT 7:56 PM EDT
Nautical Twilight 5:55 AM EDT 8:28 PM EDT
Astronomical Twilight 5:22 AM EDT 9:01 PM EDT
Moon 7:16 AM EDT (3/31) 8:45 PM EDT (3/31)
Length of Visible Light 13h 29m
Length of Day
12h 36m
New Moon, 1% of the Moon is Illuminated
Mar 31
New Moon
Apr 7
First Quarter
Apr 15
Full
Apr 22
Last Quarter
Apr 29
New

Hourly Weather History & Observations

Time (EDT) Temp. Windchill Dew Point Humidity Pressure Visibility Wind Dir Wind Speed Gust Speed Precip Events Conditions
12:58 AM 42.6 °F 35.9 °F 35.4 °F 76% 29.86 in 10.0 mi NNW 12.7 mph 24.2 mph N/A   Overcast
12:59 AM 42.8 °F 36.2 °F 35.6 °F 76% 29.83 in 10.0 mi NNW 12.7 mph 24.2 mph N/A   Overcast
1:11 AM 42.8 °F 36.6 °F 35.6 °F 76% 29.83 in 10.0 mi NNW 11.5 mph 19.6 mph N/A   Overcast
1:58 AM 42.6 °F 36.8 °F 35.4 °F 76% 29.87 in 10.0 mi NNW 10.4 mph - 0.00 in   Overcast
2:58 AM 43.3 °F 36.1 °F 34.2 °F 70% 29.88 in 10.0 mi NNW 15.0 mph - N/A   Overcast
2:59 AM 42.8 °F 35.8 °F 33.8 °F 70% 29.85 in 10.0 mi NNW 13.8 mph - N/A   Light Drizzle
3:06 AM 42.8 °F 35.8 °F 33.8 °F 70% 29.85 in 10.0 mi NNW 13.8 mph - N/A   Overcast
3:58 AM 43.0 °F 36.0 °F 32.9 °F 68% 29.89 in 10.0 mi NW 13.8 mph 20.7 mph 0.00 in   Overcast
4:58 AM 41.9 °F 34.0 °F 31.1 °F 66% 29.92 in 10.0 mi NW 16.1 mph - 0.01 in   Overcast
5:58 AM 40.5 °F 32.1 °F 30.2 °F 67% 29.93 in 10.0 mi NNW 16.1 mph 26.5 mph N/A   Clear
6:58 AM 40.1 °F 32.0 °F 29.5 °F 66% 29.95 in 10.0 mi NW 15.0 mph 25.3 mph N/A   Clear
7:58 AM 41.4 °F 33.6 °F 29.7 °F 63% 29.98 in 10.0 mi NW 15.0 mph 21.9 mph N/A   Clear
8:58 AM 44.1 °F 36.2 °F 30.6 °F 59% 29.99 in 10.0 mi NNW 18.4 mph 28.8 mph N/A   Clear
9:58 AM 46.9 °F - 31.5 °F 55% 30.02 in 10.0 mi NNW 21.9 mph 27.6 mph 0.01 in   Clear
10:58 AM 50.4 °F - 32.4 °F 50% 30.04 in 10.0 mi NNW 23.0 mph 28.8 mph N/A   Clear
11:58 AM 54.0 °F - 33.8 °F 46% 30.06 in 10.0 mi NW 20.7 mph 24.2 mph N/A   Clear
12:58 PM 56.8 °F - 34.7 °F 43% 30.04 in 10.0 mi NW 23.0 mph 28.8 mph N/A   Clear
1:58 PM 59.5 °F - 32.0 °F 35% 30.04 in 10.0 mi NW 20.7 mph 26.5 mph N/A   Clear
2:58 PM 60.8 °F - 33.1 °F 35% 30.04 in 10.0 mi NNW 17.3 mph 23.0 mph N/A   Clear
3:10 PM 60.8 °F - 32.0 °F 34% 30.01 in 10.0 mi North 18.4 mph 25.3 mph N/A   Clear
3:58 PM 61.3 °F - 30.9 °F 32% 30.02 in 10.0 mi NW 17.3 mph 20.7 mph N/A   Clear
4:58 PM 62.6 °F - 31.5 °F 31% 30.01 in 10.0 mi NNW 16.1 mph - N/A   Clear
5:58 PM 63.0 °F - 30.9 °F 30% 30.02 in 10.0 mi NW 16.1 mph - N/A   Clear
6:58 PM 62.1 °F - 30.9 °F 31% 30.04 in 10.0 mi NNW 11.5 mph - N/A   Clear
7:58 PM 59.0 °F - 29.8 °F 33% 30.06 in 10.0 mi NW 6.9 mph - N/A   Clear
8:58 PM 57.4 °F - 28.6 °F 33% 30.07 in 10.0 mi NW 5.8 mph - N/A   Clear
9:58 PM 49.6 °F - 31.3 °F 49% 30.09 in 10.0 mi West 4.6 mph - N/A   Clear
10:58 PM 47.5 °F - 30.9 °F 53% 30.11 in 10.0 mi NW 3.5 mph - N/A   Clear
11:58 PM 48.7 °F - 30.2 °F 49% 30.12 in 10.0 mi NNW 3.5 mph - N/A   Clear